TimeCDT,TemperatureF,Dew PointF,Humidity,Sea Level PressureIn,VisibilityMPH,Wind Direction,Wind SpeedMPH,Gust SpeedMPH,PrecipitationIn,Events,Conditions,WindDirDegrees,DateUTC
12:15 AM,80.6,69.8,70,30.02,10.0,SSE,4.6,-,N/A,,Clear,150,2013-07-15 05:15:00
12:35 AM,80.6,71.6,74,30.02,10.0,Calm,Calm,-,N/A,,Clear,0,2013-07-15 05:35:00
12:55 AM,80.6,71.6,74,30.01,10.0,SSE,3.5,-,N/A,,Clear,160,2013-07-15 05:55:00
1:15 AM,80.6,71.6,74,30.01,10.0,Calm,Calm,-,N/A,,Clear,0,2013-07-15 06:15:00
1:35 AM,80.6,71.6,74,30.01,10.0,Calm,Calm,-,N/A,,Clear,0,2013-07-15 06:35:00
1:55 AM,80.6,71.6,74,30.01,10.0,SSE,3.5,-,N/A,,Clear,150,2013-07-15 06:55:00
2:15 AM,80.6,69.8,70,30.01,10.0,South,4.6,-,N/A,,Clear,170,2013-07-15 07:15:00
2:35 AM,80.6,69.8,70,30.01,10.0,South,3.5,-,N/A,,Clear,170,2013-07-15 07:35:00
2:55 AM,80.6,69.8,70,30.01,10.0,ESE,3.5,-,N/A,,Clear,120,2013-07-15 07:55:00
3:15 AM,80.6,69.8,70,30.01,10.0,Calm,Calm,-,N/A,,Clear,0,2013-07-15 08:15:00
3:35 AM,80.6,69.8,70,30.01,10.0,Calm,Calm,-,N/A,,Clear,0,2013-07-15 08:35:00
3:55 AM,80.6,71.6,74,30.01,10.0,SE,4.6,-,N/A,,Clear,140,2013-07-15 08:55:00
4:15 AM,80.6,71.6,74,30.02,10.0,SSE,4.6,-,N/A,,Clear,150,2013-07-15 09:15:00
4:35 AM,80.6,71.6,74,30.02,10.0,Calm,Calm,-,N/A,,Clear,0,2013-07-15 09:35:00
4:55 AM,80.6,71.6,74,30.02,10.0,SE,4.6,-,N/A,,Clear,140,2013-07-15 09:55:00
5:15 AM,80.6,71.6,74,30.02,10.0,SE,5.8,-,N/A,,Clear,140,2013-07-15 10:15:00
5:35 AM,80.6,71.6,74,30.02,10.0,SE,5.8,-,N/A,,Clear,130,2013-07-15 10:35:00
5:55 AM,80.6,71.6,74,30.03,10.0,SSE,4.6,-,N/A,,Clear,150,2013-07-15 10:55:00
6:15 AM,80.6,71.6,74,30.04,10.0,SSE,5.8,-,N/A,,Clear,160,2013-07-15 11:15:00
6:35 AM,80.6,71.6,74,30.04,10.0,SSE,4.6,-,N/A,,Clear,150,2013-07-15 11:35:00
6:55 AM,80.6,71.6,74,30.04,10.0,SE,5.8,-,N/A,,Clear,140,2013-07-15 11:55:00
7:15 AM,80.6,71.6,74,30.05,10.0,SSE,4.6,-,N/A,,Clear,150,2013-07-15 12:15:00
7:35 AM,80.6,71.6,74,30.06,10.0,SE,5.8,-,N/A,,Clear,130,2013-07-15 12:35:00
7:55 AM,82.4,71.6,70,30.06,10.0,East,3.5,-,N/A,,Clear,80,2013-07-15 12:55:00
8:15 AM,84.2,71.6,66,30.07,10.0,South,4.6,-,N/A,,Clear,170,2013-07-15 13:15:00
8:35 AM,86.0,71.6,62,30.07,10.0,SSE,8.1,-,N/A,,Partly Cloudy,150,2013-07-15 13:35:00
8:55 AM,84.2,71.6,66,30.08,10.0,SE,6.9,16.1,N/A,,Partly Cloudy,140,2013-07-15 13:55:00
9:15 AM,84.2,71.6,66,30.08,10.0,SSE,5.8,-,N/A,,Partly Cloudy,150,2013-07-15 14:15:00
9:35 AM,84.2,71.6,66,30.09,10.0,SSE,8.1,-,N/A,,Partly Cloudy,150,2013-07-15 14:35:00
9:55 AM,87.8,73.4,62,30.09,10.0,ENE,8.1,-,N/A,,Scattered Clouds,70,2013-07-15 14:55:00
10:15 AM,87.8,71.6,58,30.09,10.0,SE,9.2,-,N/A,,Mostly Cloudy,140,2013-07-15 15:15:00
10:35 AM,86.0,71.6,62,30.09,10.0,East,11.5,-,N/A,,Mostly Cloudy,80,2013-07-15 15:35:00
10:55 AM,86.0,71.6,62,30.09,10.0,East,8.1,16.1,N/A,,Mostly Cloudy,80,2013-07-15 15:55:00
11:15 AM,87.8,71.6,58,30.09,10.0,SE,4.6,-,N/A,,Clear,130,2013-07-15 16:15:00
11:35 AM,87.8,71.6,58,30.09,10.0,East,5.8,-,N/A,,Scattered Clouds,90,2013-07-15 16:35:00
11:55 AM,87.8,69.8,55,30.09,10.0,SSE,5.8,-,N/A,,Mostly Cloudy,150,2013-07-15 16:55:00
12:15 PM,87.8,71.6,58,30.09,10.0,SSE,6.9,-,N/A,,Mostly Cloudy,150,2013-07-15 17:15:00
12:35 PM,87.8,69.8,55,30.09,10.0,ENE,6.9,-,N/A,,Mostly Cloudy,70,2013-07-15 17:35:00
12:55 PM,87.8,71.6,58,30.08,10.0,ENE,9.2,16.1,N/A,,Mostly Cloudy,70,2013-07-15 17:55:00
1:15 PM,89.6,71.6,55,30.08,10.0,SE,8.1,-,N/A,,Scattered Clouds,140,2013-07-15 18:15:00
1:35 PM,87.8,71.6,58,30.07,10.0,East,5.8,-,N/A,,Mostly Cloudy,80,2013-07-15 18:35:00
1:55 PM,87.8,71.6,58,30.07,10.0,East,9.2,-,N/A,,Mostly Cloudy,90,2013-07-15 18:55:00
2:15 PM,87.8,73.4,62,30.07,8.0,NE,6.9,-,N/A,,Mostly Cloudy,40,2013-07-15 19:15:00
2:35 PM,84.2,73.4,70,30.06,10.0,Calm,Calm,-,0.01,,Overcast,0,2013-07-15 19:35:00
2:55 PM,86.0,71.6,62,30.06,10.0,East,4.6,-,0.01,,Mostly Cloudy,90,2013-07-15 19:55:00
3:15 PM,86.0,71.6,62,30.06,10.0,ENE,4.6,-,N/A,,Mostly Cloudy,70,2013-07-15 20:15:00
3:35 PM,86.0,71.6,62,30.06,10.0,SE,6.9,-,N/A,,Scattered Clouds,140,2013-07-15 20:35:00
3:55 PM,86.0,71.6,62,30.06,10.0,ESE,4.6,-,N/A,,Mostly Cloudy,120,2013-07-15 20:55:00
4:15 PM,86.0,71.6,62,30.06,10.0,SE,5.8,-,N/A,,Mostly Cloudy,140,2013-07-15 21:15:00
4:35 PM,86.0,71.6,62,30.06,10.0,SE,3.5,-,N/A,,Mostly Cloudy,140,2013-07-15 21:35:00
4:55 PM,82.4,69.8,66,30.07,10.0,ENE,11.5,17.3,0.02,,Mostly Cloudy,70,2013-07-15 21:55:00
5:15 PM,80.6,69.8,70,30.07,10.0,East,5.8,-,N/A,,Scattered Clouds,90,2013-07-15 22:15:00
5:35 PM,82.4,69.8,66,30.07,10.0,ENE,8.1,-,N/A,,Clear,70,2013-07-15 22:35:00
5:55 PM,82.4,69.8,66,30.07,10.0,East,4.6,-,N/A,,Clear,90,2013-07-15 22:55:00
6:15 PM,82.4,71.6,70,30.08,10.0,Calm,Calm,-,N/A,,Partly Cloudy,0,2013-07-15 23:15:00
6:35 PM,78.8,71.6,78,30.07,7.0,SSE,4.6,-,0.01,,Mostly Cloudy,150,2013-07-15 23:35:00
6:55 PM,80.6,69.8,70,30.07,10.0,East,5.8,-,0.01,,Mostly Cloudy,80,2013-07-15 23:55:00
7:15 PM,80.6,69.8,70,30.08,10.0,ESE,3.5,-,N/A,,Partly Cloudy,110,2013-07-16 00:15:00
7:35 PM,80.6,69.8,70,30.07,10.0,Calm,Calm,-,N/A,,Clear,0,2013-07-16 00:35:00
7:55 PM,80.6,71.6,74,30.08,5.0,NNE,8.1,-,0.04,,Scattered Clouds,30,2013-07-16 00:55:00
8:15 PM,78.8,71.6,78,30.08,10.0,NE,3.5,-,N/A,,Mostly Cloudy,40,2013-07-16 01:15:00
8:35 PM,80.6,71.6,74,30.09,10.0,East,6.9,-,N/A,,Clear,90,2013-07-16 01:35:00
8:55 PM,80.6,71.6,74,30.10,10.0,East,5.8,-,N/A,,Clear,80,2013-07-16 01:55:00
9:15 PM,80.6,71.6,74,30.10,10.0,ENE,6.9,-,N/A,,Clear,70,2013-07-16 02:15:00
9:35 PM,80.6,71.6,74,30.11,8.0,NE,10.4,16.1,0.04,,Mostly Cloudy,50,2013-07-16 02:35:00
9:55 PM,77.0,71.6,83,30.11,10.0,NE,4.6,-,0.23,,Mostly Cloudy,40,2013-07-16 02:55:00
10:15 PM,78.8,71.6,78,30.10,10.0,ENE,3.5,-,N/A,,Partly Cloudy,70,2013-07-16 03:15:00
10:35 PM,78.8,73.4,83,30.10,10.0,East,3.5,-,N/A,,Clear,80,2013-07-16 03:35:00
10:55 PM,80.6,73.4,79,30.09,10.0,East,3.5,-,N/A,,Partly Cloudy,80,2013-07-16 03:55:00
11:15 PM,80.6,73.4,79,30.09,10.0,East,3.5,-,N/A,,Partly Cloudy,80,2013-07-16 04:15:00
11:35 PM,80.6,73.4,79,30.09,10.0,East,3.5,-,N/A,,Mostly Cloudy,80,2013-07-16 04:35:00
11:55 PM,80.6,73.4,79,30.09,10.0,East,4.6,-,N/A,,Scattered Clouds,80,2013-07-16 04:55:00